FW5156 Weather Reports


Display with metric or nautical units.
time (UTC)temp
F
wind
direction
speed
MPH
gust
MPH
rain 1hr
in
rain 24hr
in
rain mn
in
humidity
%
barometer
mb
20260510114538 54 0.0 0.0 0.00 0.00 0.00 75 1014.8
20260510113537 54 0.0 0.0 0.00 0.00 0.00 75 1014.6
20260510112537 54 0.0 0.0 0.00 0.00 0.00 74 1014.6
20260510111517 54 0.0 0.0 0.00 0.00 0.00 72 1014.4
20260510110517 54 0.0 0.0 0.00 0.00 0.00 72 1013.9
20260510105516 54 0.0 0.0 0.00 0.00 0.00 73 1013.7
20260510104517 54 0.0 0.0 0.00 0.00 0.00 74 1013.6
20260510103517 54 0.0 0.0 0.00 0.00 0.00 73 1013.5
20260510102517 54 0.0 0.0 0.00 0.00 0.00 72 1013.4
20260510101516 55 0.0 0.0 0.00 0.00 0.00 72 1013.2
20260510100517 55 0.0 0.0 0.00 0.00 0.00 73 1013.1
20260510095517 55 0.0 1.0 0.00 0.00 0.00 71 1012.9
20260510094517 56 0.0 2.0 0.00 0.00 0.00 71 1012.8
20260510093517 56 0.0 2.0 0.00 0.00 0.00 68 1013.3
20260510092517 57 0.0 1.0 0.00 0.00 0.00 69 1013.2
20260510091517 57 45 1.0 4.0 0.00 0.00 0.00 71 1013.4
20260510090517 57 248 1.0 6.0 0.00 0.00 0.00 69 1013.1
20260510085517 57 248 1.0 3.0 0.00 0.00 0.00 68 1013.2
20260510084516 58 0.0 0.0 0.00 0.01 0.00 72 1013.1
20260510083517 58 0.0 0.0 0.00 0.02 0.00 75 1013.1
20260510082537 58 0.0 0.0 0.00 0.03 0.00 77 1012.9
20260510081537 58 0.0 2.0 0.00 0.05 0.00 81 1012.6
20260510080516 58 0.0 0.0 0.00 0.05 0.00 85 1012.5
20260510075517 58 0.0 0.0 0.00 0.06 0.00 85 1012.3
20260510074517 58 0.0 0.0 0.00 0.06 0.00 85 1012.1
20260510073517 58 0.0 0.0 0.00 0.08 0.00 86 1011.8
20260510072517 58 0.0 0.0 0.00 0.08 0.00 88 1011.7
20260510071517 58 0.0 0.0 0.00 0.09 0.00 87 1011.5
20260510070517 59 0.0 1.0 0.00 0.10 0.00 86 1011.3
20260510065557 59 0.0 0.0 0.00 0.10 0.00 83 1011.2
20260510064517 60 0.0 0.0 0.00 0.10 0.00 82 1011.1
20260510063517 61 0.0 0.0 0.00 0.10 0.00 81 1011.2
20260510062537 61 0.0 0.0 0.00 0.10 0.00 81 1011.3
20260510061518 61 0.0 0.0 0.00 0.10 0.00 81 1011.1
20260510060537 61 0.0 0.0 0.00 0.10 0.00 81 1011.2
20260510055517 61 0.0 0.0 0.00 0.11 0.00 81 1011.2
20260510054517 61 0.0 0.0 0.00 0.13 0.00 82 1011.3
20260510053516 61 0.0 0.0 0.00 0.15 0.00 82 1011.4
20260510052517 61 0.0 0.0 0.00 0.17 0.00 82 1011.4
20260510051538 61 0.0 0.0 0.00 0.20 0.00 83 1011.2
20260510050517 61 0.0 0.0 0.00 0.22 0.00 83 1011.5
20260510045517 61 0.0 0.0 0.00 0.23 0.00 81 1011.4
20260510044517 62 0.0 0.0 0.00 0.25 0.00 79 1011.3
20260510043537 62 0.0 4.0 0.00 0.28 0.00 78 1010.8
20260510042517 62 0.0 4.0 0.00 0.31 0.00 78 1010.8
20260510041517 62 0.0 0.0 0.00 0.33 0.00 77 1010.7
20260510040518 62 0.0 3.0 0.00 0.35 0.00 77 1010.8
20260510035516 62 0.0 4.0 0.00 0.37 0.36 78 1010.7
20260510034517 62 225 1.0 3.0 0.00 0.37 0.36 77 1010.7
20260510033537 62 0.0 3.0 0.00 0.39 0.36 77 1010.7
20260510032517 62 0.0 0.0 0.00 0.43 0.36 77 1010.7
20260510031517 63 0.0 1.0 0.00 0.47 0.36 77 1010.7
20260510030517 63 0.0 3.0 0.00 0.49 0.36 77 1010.8
20260510025517 63 0.0 1.0 0.00 0.49 0.36 77 1010.6
20260510024517 63 0.0 1.0 0.00 0.49 0.36 77 1010.5
20260510023517 63 0.0 0.0 0.00 0.49 0.36 77 1010.4
20260510022517 63 0.0 0.0 0.00 0.50 0.36 76 1010.3
20260510021516 63 0.0 0.0 0.00 0.51 0.36 76 1010.2
20260510020516 64 0.0 2.0 0.00 0.51 0.36 76 1010.1
20260510015537 64 0.0 0.0 0.00 0.54 0.36 76 1010.0
20260510014516 64 0.0 0.0 0.00 0.56 0.36 76 1009.8
20260510013537 64 0.0 0.0 0.00 0.59 0.36 75 1009.6
20260510012517 65 0.0 0.0 0.00 0.62 0.36 75 1009.4
20260510011517 65 0.0 0.0 0.00 0.63 0.36 74 1009.3
20260510010537 66 0.0 0.0 0.00 0.63 0.36 73 1009.2
20260510005536 66 0.0 0.0 0.00 0.63 0.36 72 1009.2
20260510004517 67 0.0 0.0 0.00 0.64 0.36 70 1009.1
20260510003517 68 0.0 0.0 0.00 0.65 0.36 68 1008.9
20260510002517 68 0.0 0.0 0.00 0.65 0.36 67 1008.8
20260510001517 69 0.0 3.0 0.00 0.65 0.36 65 1008.7
20260510000517 69 293 1.0 7.0 0.00 0.65 0.36 64 1008.7
20260509235537 70 248 1.0 7.0 0.00 0.65 0.36 64 1008.7
20260509234517 70 293 1.0 5.0 0.00 0.66 0.36 63 1008.7
20260509233517 70 248 1.0 7.0 0.00 0.67 0.36 62 1008.6
20260509232516 70 293 1.0 7.0 0.00 0.68 0.36 60 1008.5
20260509231537 71 248 1.0 4.0 0.00 0.68 0.36 59 1008.4
20260509230517 71 248 3.0 10.0 0.00 0.68 0.36 58 1008.4
20260509225517 73 0.0 4.0 0.00 0.69 0.36 58 1008.4
20260509224517 73 293 4.0 12.0 0.00 0.70 0.36 54 1008.4
20260509223517 73 293 2.0 7.0 0.00 0.70 0.36 54 1008.3
20260509222537 73 270 3.0 10.0 0.00 0.70 0.36 53 1008.2
20260509221517 74 225 3.0 15.0 0.00 0.70 0.36 55 1008.2
20260509220517 74 315 4.0 10.0 0.00 0.71 0.36 52 1008.2
20260509215517 73 270 5.0 15.0 0.00 0.71 0.36 51 1008.2
20260509214517 74 270 3.0 8.0 0.00 0.71 0.36 51 1008.1
20260509213516 74 225 1.0 7.0 0.00 0.72 0.36 52 1008.0
20260509212537 74 248 1.0 10.0 0.00 0.72 0.36 52 1008.1
20260509211517 74 0.0 8.0 0.00 0.72 0.36 52 1008.0
20260509210517 74 203 1.0 10.0 0.00 0.72 0.36 53 1007.9
20260509205517 74 203 1.0 7.0 0.00 0.72 0.36 52 1007.9
20260509204517 74 0.0 2.0 0.00 0.72 0.36 52 1007.9
20260509203517 74 293 1.0 11.0 0.00 0.72 0.36 51 1008.0
20260509202517 73 225 2.0 17.0 0.00 0.72 0.36 52 1008.1
20260509201517 73 0.0 4.0 0.00 0.72 0.36 52 1008.2
20260509200517 74 293 1.0 9.0 0.00 0.72 0.36 53 1008.3
20260509195517 74 0.0 4.0 0.00 0.72 0.36 56 1008.4
20260509194516 73 0.0 6.0 0.00 0.72 0.36 58 1008.4
20260509193516 73 0.0 5.0 0.00 0.72 0.36 60 1008.4
20260509192517 72 203 1.0 11.0 0.00 0.72 0.36 57 1008.6
20260509191517 72 0.0 1.0 0.00 0.72 0.36 60 1008.6
20260509190517 71 0.0 6.0 0.00 0.72 0.36 62 1008.5
20260509185517 71 225 1.0 11.0 0.00 0.72 0.36 62 1008.7
20260509184517 71 225 1.0 7.0 0.00 0.72 0.36 66 1008.7
20260509183537 70 293 1.0 9.0 0.00 0.72 0.36 66 1008.7
20260509182517 70 0.0 9.0 0.00 0.72 0.36 69 1008.7
20260509181517 69 0.0 5.0 0.00 0.72 0.36 69 1008.8
20260509180517 68 225 2.0 11.0 0.00 0.72 0.36 71 1008.9
20260509175517 68 0.0 6.0 0.00 0.72 0.36 73 1009.0
20260509174516 68 0.0 7.0 0.00 0.72 0.36 71 1009.0
20260509173517 67 0.0 6.0 0.00 0.72 0.36 74 1009.0
20260509172517 67 0.0 0.0 0.00 0.72 0.36 74 1009.1
20260509171517 66 0.0 7.0 0.00 0.72 0.36 75 1009.3
20260509170517 66 0.0 2.0 0.00 0.72 0.36 76 1009.4
20260509165517 66 0.0 1.0 0.00 0.72 0.36 76 1009.5
20260509164517 65 0.0 0.0 0.00 0.72 0.36 79 1009.4
20260509163517 65 248 1.0 6.0 0.00 0.72 0.36 77 1009.4
20260509162537 64 225 2.0 9.0 0.00 0.72 0.36 77 1009.4
20260509161517 64 270 1.0 9.0 0.00 0.72 0.36 78 1009.3
20260509160517 63 0.0 5.0 0.00 0.72 0.36 80 1009.2
20260509155516 62 0.0 8.0 0.00 0.72 0.36 79 1009.3
20260509154517 63 0.0 9.0 0.00 0.72 0.36 83 1009.3
20260509153517 62 203 1.0 12.0 0.00 0.72 0.36 81 1009.2
20260509152517 61 0.0 5.0 0.00 0.72 0.36 84 1009.2
20260509151517 61 0.0 1.0 0.00 0.72 0.36 84 1009.0
20260509150517 61 0.0 4.0 0.00 0.72 0.36 85 1009.1
20260509145517 60 293 1.0 11.0 0.00 0.72 0.36 87 1009.0
20260509144517 59 0.0 8.0 0.00 0.72 0.36 87 1009.1
20260509143517 59 0.0 0.0 0.00 0.72 0.36 90 1008.9
20260509142517 59 293 3.0 12.0 0.00 0.72 0.36 91 1008.9
20260509141517 58 0.0 0.0 0.00 0.72 0.36 93 1008.8
20260509140516 57 0.0 4.0 0.00 0.72 0.36 96 1008.8
20260509135537 57 0.0 2.0 0.00 0.72 0.36 97 1008.8
20260509134517 56 0.0 0.0 0.00 0.72 0.36 97 1008.7
20260509133517 55 0.0 5.0 0.00 0.72 0.36 97 1008.7
20260509132537 55 0.0 0.0 0.00 0.72 0.36 97 1008.8
20260509131537 54 0.0 4.0 0.00 0.72 0.36 97 1008.6
20260509130517 54 0.0 0.0 0.00 0.72 0.36 97 1008.6
20260509125517 54 0.0 0.0 0.00 0.72 0.36 97 1008.6
20260509124517 54 0.0 0.0 0.00 0.72 0.36 97 1008.5
20260509123517 54 0.0 0.0 0.00 0.72 0.36 97 1008.4
20260509122517 53 0.0 0.0 0.00 0.72 0.36 97 1008.3
20260509121517 53 0.0 0.0 0.00 0.72 0.36 97 1008.2
20260509120517 53 0.0 0.0 0.00 0.72 0.36 97 1008.4
20260509115517 52 0.0 0.0 0.00 0.72 0.36 97 1008.2